UAL1962 KLAX-KORD

Flight info

Callsign UAL1962
Flight time N/A
Altitude 35000
Route OSHNN1 BEALE Q842 WINEN OCS MBW/N0448F370 ONL Q122 VIGGR MYRRS FYTTE7
Aircraft B753/M-SDE3FGHIM3RWXY/LB1

Departure

Time 2026-05-05 08:06
Airport Los Angeles International Airport (KLAX)

Arrival

Time N/A
Airport Chicago O'Hare International Airport (KORD)
Time Latitude Longitude Altitude Speed Heading
2026-05-05 07:25 33.94106 -118.39901 128 ft 0 kts 306°
2026-05-05 07:54 33.94101 -118.39889 127 ft 2 kts 287°
2026-05-05 07:54 33.94099 -118.39872 127 ft 2 kts 263°
2026-05-05 07:54 33.94103 -118.39854 127 ft 2 kts 239°
2026-05-05 07:55 33.94113 -118.39841 127 ft 2 kts 215°
2026-05-05 07:55 33.94127 -118.39834 127 ft 2 kts 191°
2026-05-05 07:55 33.94142 -118.39834 127 ft 2 kts 169°
2026-05-05 07:55 33.94151 -118.39835 127 ft 1 kts 171°
2026-05-05 07:56 33.94152 -118.39836 127 ft 0 kts 171°
2026-05-05 07:59 33.94151 -118.39835 127 ft 0 kts 171°
2026-05-05 07:59 33.94131 -118.39832 127 ft 4 kts 172°
2026-05-05 08:00 33.94099 -118.39827 126 ft 5 kts 174°
2026-05-05 08:00 33.94064 -118.39827 126 ft 5 kts 179°
2026-05-05 08:00 33.94027 -118.39823 126 ft 5 kts 174°
2026-05-05 08:00 33.93979 -118.39816 123 ft 8 kts 171°
2026-05-05 08:01 33.93926 -118.39791 123 ft 7 kts 137°
2026-05-05 08:01 33.93907 -118.39736 121 ft 6 kts 89°
2026-05-05 08:01 33.93912 -118.39677 119 ft 8 kts 83°
2026-05-05 08:01 33.93921 -118.39594 117 ft 11 kts 83°
2026-05-05 08:02 33.93931 -118.39489 116 ft 14 kts 83°
2026-05-05 08:02 33.93945 -118.39351 114 ft 19 kts 83°
2026-05-05 08:02 33.93964 -118.39166 112 ft 24 kts 83°
2026-05-05 08:02 33.93984 -118.38969 111 ft 22 kts 83°
2026-05-05 08:03 33.94002 -118.38789 109 ft 20 kts 83°
2026-05-05 08:03 33.94020 -118.38625 108 ft 18 kts 83°
2026-05-05 08:03 33.94035 -118.38478 108 ft 17 kts 83°
2026-05-05 08:03 33.94049 -118.38337 107 ft 18 kts 83°
2026-05-05 08:04 33.94065 -118.38175 106 ft 18 kts 83°
2026-05-05 08:04 33.94076 -118.38063 105 ft 9 kts 86°
2026-05-05 08:04 33.94051 -118.38008 104 ft 7 kts 154°
2026-05-05 08:04 33.94001 -118.38008 104 ft 7 kts 214°
2026-05-05 08:05 33.93980 -118.38065 104 ft 7 kts 262°
2026-05-05 08:05 33.93966 -118.38203 105 ft 38 kts 263°
2026-05-05 08:05 33.93907 -118.38773 109 ft 97 kts 263°
2026-05-05 08:05 33.93802 -118.39800 121 ft 149 kts 263°
2026-05-05 08:06 33.93671 -118.41155 395 ft 171 kts 264°
2026-05-05 08:06 33.93534 -118.42600 1044 ft 177 kts 263°
2026-05-05 08:06 33.93375 -118.44099 1674 ft 190 kts 263°
2026-05-05 08:06 33.93086 -118.45723 2226 ft 209 kts 243°
2026-05-05 08:07 33.92233 -118.47199 2811 ft 229 kts 232°
2026-05-05 08:07 33.91211 -118.48776 3502 ft 246 kts 233°
2026-05-05 08:07 33.90100 -118.50413 4222 ft 263 kts 231°
2026-05-05 08:07 33.88929 -118.52090 5283 ft 265 kts 231°
2026-05-05 08:08 33.87747 -118.53786 6305 ft 268 kts 231°
2026-05-05 08:08 33.86363 -118.55238 7301 ft 272 kts 208°
2026-05-05 08:08 33.84518 -118.55805 8183 ft 281 kts 180°
2026-05-05 08:08 33.82582 -118.55450 9159 ft 285 kts 170°
2026-05-05 08:09 33.80623 -118.54962 10048 ft 289 kts 171°
2026-05-05 08:09 33.78639 -118.54459 10700 ft 303 kts 170°
2026-05-05 08:09 33.76481 -118.53895 11165 ft 324 kts 169°
2026-05-05 08:09 33.74223 -118.53294 11616 ft 343 kts 169°
2026-05-05 08:10 33.71901 -118.52293 12023 ft 365 kts 153°
2026-05-05 08:10 33.69864 -118.50471 12803 ft 374 kts 136°
2026-05-05 08:10 33.68285 -118.47974 13674 ft 380 kts 120°
2026-05-05 08:10 33.67287 -118.45008 14435 ft 389 kts 107°
2026-05-05 08:11 33.66518 -118.41872 15323 ft 390 kts 109°
2026-05-05 08:11 33.65672 -118.38765 16082 ft 396 kts 110°
2026-05-05 08:11 33.64821 -118.35604 16860 ft 400 kts 105°
2026-05-05 08:11 33.64458 -118.32323 17568 ft 406 kts 92°
2026-05-05 08:12 33.64465 -118.28912 18230 ft 412 kts 92°
2026-05-05 08:12 33.64556 -118.25488 18962 ft 417 kts 85°
2026-05-05 08:12 33.65138 -118.22028 19611 ft 424 kts 74°
2026-05-05 08:12 33.66238 -118.18752 20339 ft 428 kts 64°
2026-05-05 08:13 33.67812 -118.15701 20821 ft 438 kts 53°
2026-05-05 08:13 33.69857 -118.12985 21555 ft 440 kts 43°
2026-05-05 08:13 33.72255 -118.10702 22087 ft 446 kts 34°
2026-05-05 08:13 33.74806 -118.08558 22735 ft 449 kts 35°
2026-05-05 08:14 33.77363 -118.06335 23226 ft 456 kts 36°
2026-05-05 08:14 33.79909 -118.04089 23980 ft 456 kts 36°
2026-05-05 08:14 33.82507 -118.01778 24241 ft 466 kts 36°
2026-05-05 08:14 33.85074 -117.99483 24831 ft 468 kts 36°
2026-05-05 08:15 33.87738 -117.97093 25192 ft 475 kts 36°
2026-05-05 08:15 33.90381 -117.94715 25513 ft 483 kts 36°
2026-05-05 08:15 33.93043 -117.92293 26076 ft 484 kts 37°
2026-05-05 08:15 33.95763 -117.89809 26386 ft 492 kts 37°
2026-05-05 08:16 33.98501 -117.87305 26786 ft 497 kts 37°
2026-05-05 08:16 34.01253 -117.84790 27205 ft 501 kts 37°
2026-05-05 08:16 34.04060 -117.82219 27570 ft 506 kts 37°
2026-05-05 08:16 34.06869 -117.79627 27864 ft 512 kts 38°
2026-05-05 08:17 34.09499 -117.76698 28214 ft 517 kts 48°
2026-05-05 08:17 34.11849 -117.73365 28547 ft 521 kts 51°
2026-05-05 08:17 34.14143 -117.70001 28772 ft 528 kts 51°
2026-05-05 08:17 34.16502 -117.66528 29126 ft 531 kts 52°
2026-05-05 08:18 34.18858 -117.63045 29350 ft 538 kts 51°
2026-05-05 08:18 34.21228 -117.59529 29733 ft 541 kts 52°
2026-05-05 08:18 34.23579 -117.56037 29967 ft 547 kts 51°
2026-05-05 08:18 34.25997 -117.52439 30290 ft 550 kts 52°
2026-05-05 08:19 34.28412 -117.48839 30609 ft 553 kts 51°
2026-05-05 08:19 34.30830 -117.45231 30966 ft 555 kts 52°
2026-05-05 08:19 34.33266 -117.41591 31163 ft 561 kts 51°
2026-05-05 08:19 34.35715 -117.37927 31589 ft 560 kts 52°
2026-05-05 08:20 34.38141 -117.34296 31855 ft 563 kts 52°
2026-05-05 08:20 34.40641 -117.30550 32196 ft 563 kts 53°
2026-05-05 08:20 34.43105 -117.26854 32367 ft 569 kts 52°
2026-05-05 08:20 34.45558 -117.23172 32776 ft 566 kts 52°
2026-05-05 08:21 34.48064 -117.19402 32956 ft 571 kts 52°
2026-05-05 08:21 34.50528 -117.15694 33275 ft 571 kts 53°
2026-05-05 08:21 34.52995 -117.11979 33926 ft 565 kts 53°
2026-05-05 08:21 34.55479 -117.08288 34334 ft 564 kts 51°
2026-05-05 08:22 34.57988 -117.04650 34776 ft 562 kts 51°
2026-05-05 08:22 34.60457 -117.01057 34957 ft 551 kts 52°
2026-05-05 08:22 34.65372 -116.93883 34969 ft 555 kts 51°
2026-05-05 08:23 34.70325 -116.86651 34944 ft 560 kts 52°
2026-05-05 08:23 34.75271 -116.79403 34958 ft 557 kts 52°
2026-05-05 08:24 34.80226 -116.72132 34957 ft 556 kts 51°